Location: Table Mountain
(47.2500°N, 120.5778°W)
Time: 15:24:07
(UTC-07:00)

N. Korean satellite - Pass Details

Date: 08 October 2017
Orbit: 459 x 517 km, 97.2° (Epoch: 17 October)

Event Time Altitude Azimuth Distance (km) Brightness Sun altitude
Rises 20:20:44 0° 219° (SW) 2,565 10.6 -20.0°
Reaches altitude 10° 20:25:01 10° 268° (W) 1,672 10.4 -20.7°
Maximum altitude 20:25:13 10° 271° (W) 1,669 10.4 -20.7°
Drops below altitude 10° 20:25:25 10° 274° (W) 1,671 10.4 -20.8°
Sets 20:29:41 0° 324° (NW) 2,540 11.0 -21.5°
